"2022-01-15 00:01:00",435287,-5.257998,-5.112415,-19.39329,8.621274,-18.82937,8.640964,-1.23336,-0.09634915,-21.06788,7.361257,0,0.004,934,0,0,0,3.942894,4.07637,4.132273,5.012634,5.066727,5.340469,1.616048,9.03627,10.3343,4.366203,"NAN","NAN",6.089686,-2.020818,-1.187724,-1.191887,-1.131402,0.3413287,37.80111,37.80111,37.78302,38.84097,38.43633,38.07916,37.62479,38.78897,35.24215,0.6957996,0.6958033,0.6949568,0.7450365,0.7256969,0.708817,0.6876009,0.7425386,0.581081,1.000089,6.852085,13.10799,338,338.7,330,-8.83,4.855
"2022-01-15 00:02:00",435288,-5.171999,-5.080549,-19.45044,8.56221,-18.94141,8.588458,-0.984436,-0.04817443,-20.48879,7.30529,0,0.004,905,0,0,0,3.93308,4.073196,4.106008,5.015976,5.066727,5.340469,1.62262,9.03299,10.32774,4.36293,"NAN","NAN",6.093043,-2.023453,-1.189436,-1.193531,-1.131408,0.3414089,37.79433,37.83728,37.78528,38.83644,38.44085,38.07011,37.62704,38.79349,35.23537,0.6954835,0.6974868,0.6950621,0.7448191,0.7259117,0.708392,0.6877058,0.7427557,0.5807892,1.000089,6.852085,13.10246,337.7,338.3,330.3,-8.1,4.778
"2022-01-15 00:03:00",435289,-5.096741,-5.048673,-19.04998,8.535869,-18.54912,8.542539,-0.984436,0,-19.77613,7.246231,0,0.004,1003,0,0,0,3.933131,4.066635,4.096176,5.015976,5.066727,5.340469,1.612773,9.029709,10.33102,4.36293,"NAN","NAN",6.096321,-2.02608,-1.191997,-1.195171,-1.132262,0.3414102,37.79432,37.77172,37.78754,38.83419,38.44085,38.08368,37.63157,38.78445,35.24215,0.6954835,0.6944363,0.6951675,0.7447104,0.7259117,0.7090294,0.6879156,0.7423216,0.581081,1.000077,6.845308,13.09969,338,338.5,330.7,-7.802,4.81
"2022-01-15 00:04:00",435290,-5.032229,-5.01679,-19.16437,8.532593,-18.99741,8.539368,-1.046667,0,-19.5534,7.223358,0,0.004,1083,0,0,0,3.923327,4.06336,4.102936,5.015976,5.066727,5.340469,1.602951,9.03299,10.32774,4.36293,"NAN","NAN",6.102877,-2.029582,-1.191999,-1.195992,-1.134823,0.341411,37.79659,37.83953,37.78528,38.83192,38.44085,38.06785,37.62479,38.7935,35.24441,0.6955889,0.6975923,0.6950621,0.7446017,0.7259117,0.7082857,0.6876009,0.7427559,0.5811783,1.000077,6.831753,13.09509,337.8,338,330.8,-7.197,4.715
"2022-01-15 00:05:00",435291,-4.903215,-4.974294,-18.47784,8.479978,-18.26885,8.50633,-0.9222056,-0.1445227,-19.90968,7.207036,0,0.004,1040,0,0,0,3.916735,4.053484,4.096283,5.015976,5.066727,5.340469,1.602966,9.023148,10.33102,4.36293,"NAN","NAN",6.099599,-2.035712,-1.193709,-1.195176,-1.136533,0.3413377,37.79433,37.80789,37.78981,38.82966,38.43633,38.07689,37.62704,38.79123,35.23763,0.6954835,0.69612,0.6952727,0.7444932,0.725697,0.708711,0.6877058,0.7426473,0.5808865,1.000089,6.831753,13.10799,338.2,338.6,330.4,-8.11,4.83
"2022-01-15 00:06:00",435292,-4.913968,-4.974294,-19.16432,8.467392,-18.66113,8.483584,-1.046669,-0.1445227,-20.44416,7.20713,0,0.004,945,0,0,0,3.926539,4.056814,4.099505,5.015976,5.066727,5.340469,1.606242,9.029709,10.32774,4.366259,"NAN","NAN",6.099599,-2.040086,-1.193709,-1.198453,-1.136533,0.3414152,37.79206,37.80789,37.78981,38.83192,38.44085,38.0769,37.62704,38.79802,35.24215,0.6953781,0.6961198,0.6952727,0.7446018,0.7259117,0.7087105,0.6877058,0.7429731,0.581081,1.000089,6.831753,13.10614,337.5,338.1,329.9,-8.15,4.726
"2022-01-15 00:07:00",435293,-4.892429,-4.953002,-19.67923,8.489917,-18.94136,8.506434,-1.233358,-0.04817437,-19.7761,7.193726,0,0.004,850,0,0,0,3.946218,4.063303,4.089625,5.015976,5.066727,5.347153,1.606267,9.029709,10.32446,4.359657,"NAN","NAN",6.086487,-2.043567,-1.196259,-1.198442,-1.137377,0.341413,37.79433,37.80111,37.78981,38.8387,38.43406,38.07915,37.62479,38.78671,35.23989,0.6954835,0.6958033,0.6952727,0.7449277,0.7255895,0.7088168,0.6876009,0.7424302,0.5809838,1.000128,6.820454,13.09601,337.1,337.9,330.5,-7.381,4.692
"2022-01-15 00:08:00",435294,-4.817145,-4.952985,-19.16437,8.493306,-18.54909,8.509824,-1.171127,-0.1926975,-19.77611,7.174322,0,0.004,791,0,0,0,3.936353,4.053533,4.086403,5.015976,5.063393,5.337194,1.612813,9.029709,10.32774,4.36293,"NAN","NAN",6.093043,-2.049688,-1.196257,-1.19926,-1.138228,0.3414119,37.79885,37.74233,37.78754,38.84323,38.43859,38.07463,37.62704,38.79802,35.23763,0.6956943,0.6930695,0.6951675,0.7451451,0.7258043,0.7086043,0.6877058,0.7429729,0.5808865,1.000077,6.809155,13.09417,337.6,338.3,330.4,-7.812,4.776
"2022-01-15 00:09:00",435295,-4.870912,-4.963618,-19.39322,8.493199,-18.88535,8.509824,-1.357824,0,-19.99883,7.147891,0,0.004,888,0,0,0,3.923271,4.056862,4.089785,5.019312,5.070068,5.350494,1.602946,9.026428,10.32774,4.359657,"NAN","NAN",6.089765,-2.05494,-1.197112,-1.200081,-1.14079,0.3415664,37.79659,37.83501,37.78754,38.84549,38.44085,38.06107,37.62931,38.78445,35.24441,0.6955889,0.6973813,0.6951675,0.7452539,0.7259117,0.707967,0.6878107,0.7423216,0.5811784,1.000089,6.809155,13.09877,337.4,338,330,-7.873,4.707
"2022-01-15 00:10:00",435296,-4.881686,-4.974269,-19.45045,8.506434,-18.88538,8.513,-0.9222031,-0.1445235,-19.64253,7.14461,0,0.004,905,0,0,0,3.920003,4.056913,4.089732,5.015976,5.070068,5.350494,1.616109,9.03299,10.32774,4.353111,"NAN","NAN",6.086487,-2.061071,-1.198823,-1.202543,-1.141647,0.3413311,37.78981,37.80337,37.78754,38.82062,38.43633,38.07915,37.62704,38.78445,35.23989,0.6952727,0.6959088,0.6951674,0.7440586,0.7256969,0.7088168,0.6877058,0.7423216,0.5809838,1.000102,6.809155,13.09325,337.4,338,330.4,-7.55,4.71
"2022-01-15 00:11:00",435297,-4.795665,-4.974269,-18.53514,8.46051,-18.2129,8.483582,-1.046669,-0.04817449,-19.64253,7.111704,0,0.004,865,0,0,0,3.933131,4.047081,4.073242,5.019312,5.066727,5.340536,1.596436,9.026428,10.33102,4.366259,"NAN","NAN",6.086487,-2.067195,-1.200529,-1.203362,-1.139941,0.3414862,37.79206,37.83502,37.78302,38.84097,38.43633,38.06785,37.62931,38.78671,35.23989,0.6953781,0.6973815,0.6949568,0.7450365,0.7256969,0.7082856,0.6878107,0.74243,0.5809838,1.000089,6.809155,13.09693,338.1,338.5,330.2,-8.15,4.818
"2022-01-15 00:12:00",435298,-4.90316,-4.963609,-18.7068,8.404849,-18.1569,8.430982,-1.108897,-0.0481746,-19.59803,7.082443,0,0.004,989,0,0,0,3.923383,4.033867,4.07662,5.015976,5.066727,5.343811,1.599714,9.023143,10.32446,4.353167,"NAN","NAN",6.093043,-2.072428,-1.20052,-1.204172,-1.142491,0.3416393,37.79206,37.83049,37.78528,38.82966,38.44085,38.07011,37.62704,38.79575,35.23537,0.6953781,0.6971703,0.6950621,0.7444932,0.7259117,0.7083918,0.6877058,0.7428641,0.5807892,1.000115,6.801624,13.10246,337.6,338.3,330.1,-8.16,4.775
"2022-01-15 00:13:00",435299,-4.913897,-4.921079,-18.70681,8.388446,-18.15691,8.394897,-1.108899,0,-19.19717,7.039551,0,0.004,970,0,0,0,3.91346,4.027407,4.073339,5.015976,5.066727,5.353836,1.59318,9.026428,10.32774,4.35644,"NAN","NAN",6.086487,-2.079423,-1.202224,-1.204989,-1.144196,0.3417157,37.79659,37.83275,37.78528,38.84549,38.44085,38.07463,37.62931,38.79123,35.23537,0.6955889,0.6972758,0.6950621,0.7452542,0.7259117,0.7086043,0.6878107,0.7426472,0.5807892,1.000051,6.786564,13.09785,337.6,338.1,330.3,-7.844,4.737
"2022-01-15 00:14:00",435300,-4.91388,-4.899805,-18.5352,8.355537,-18.04484,8.365265,-0.8599752,0,-18.8854,6.983866,0,0.004,937,0,0,0,3.930031,4.027354,4.066729,5.015976,5.070068,5.347153,1.593165,9.026425,10.33456,4.356552,"NAN","NAN",6.096321,-2.083782,-1.203922,-1.207438,-1.146748,0.3416377,37.79885,37.79885,37.78754,38.82288,38.44085,38.07463,37.62479,38.80027,35.23763,0.6956943,0.6956985,0.6951675,0.7441671,0.7259117,0.7086043,0.6876009,0.7430818,0.5808865,1.000064,6.786564,13.10706,337.6,338.1,330.3,-7.794,4.729
"2022-01-15 00:15:00",435301,-4.903042,-4.846576,-18.13478,8.306409,-17.76467,8.325994,-0.9222056,0,-18.79634,6.944491,0,0.004,1089,0,0,0,3.943047,4.020754,4.07001,5.015976,5.070068,5.350494,1.59318,9.019862,10.31133,4.353277,"NAN","NAN",6.096321,-2.089002,-1.203052,-1.209059,-1.146732,0.3416352,37.79659,37.74459,37.78528,38.8387,38.44085,38.07011,37.62704,38.79123,35.24441,0.6955889,0.693175,0.6950621,0.7449279,0.7259117,0.7083918,0.6877058,0.7426471,0.5811784,1.000051,6.776398,13.10614,337.7,338.2,330.2,-8.02,4.746
"2022-01-15 00:16:00",435302,-4.903042,-4.846576,-18.02036,8.270221,-17.59655,8.286507,-0.984436,0,-18.48455,6.901764,0,0.004,1095,0,0,0,3.907061,4.024078,4.07001,5.019312,5.070068,5.340469,1.586614,9.016582,10.32787,4.346619,"NAN","NAN",6.089765,-2.096,-1.205612,-1.20824,-1.146732,0.3417127,37.79433,37.83501,37.78754,38.83644,38.44085,38.06785,37.62478,38.78897,35.23989,0.6954835,0.6973813,0.6951675,0.7448191,0.7259117,0.7082856,0.6876009,0.7425385,0.5809838,1.000077,6.766232,13.08772,337.6,338.1,330.3,-7.894,4.74
"2022-01-15 00:17:00",435303,-4.903076,-4.793467,-18.24918,8.247264,-17.70862,8.276891,-0.984436,-0.04817468,-18.48454,6.882154,0,0.004,1014,0,0,0,3.913564,4.027359,4.066778,5.022649,5.070068,5.350561,1.593165,9.023148,10.328,4.353333,"NAN","NAN",6.086487,-2.103017,-1.203916,-1.210708,-1.148448,0.3417133,37.79433,37.79885,37.78528,38.83192,38.44085,38.07011,37.62704,38.78219,35.24215,0.6954835,0.6956978,0.6950621,0.7446017,0.7259117,0.7083921,0.6877058,0.7422131,0.581081,1.000115,6.766232,13.10522,337.3,338,330.2,-7.884,4.707
"2022-01-15 00:18:00",435304,-4.892341,-4.761598,-17.79152,8.220914,-17.42842,8.240807,-1.108897,0,-18.48454,6.833033,0,0.004,920,0,0,0,3.916936,4.030683,4.066681,5.019312,5.066727,5.360519,1.589905,9.013301,10.32787,4.356608,"NAN","NAN",6.093043,-2.107394,-1.205625,-1.209072,-1.151863,0.3417912,37.79433,37.84632,37.78754,38.83644,38.44311,38.07238,37.62704,38.79349,35.24667,0.6954835,0.6979089,0.6951675,0.7448191,0.7260191,0.7084981,0.6877058,0.7427557,0.5812756,1.000089,6.766232,13.09509,337.6,338.1,330,-8.25,4.727
"2022-01-15 00:19:00",435305,-4.903089,-4.719079,-17.27664,8.181758,-16.92404,8.201442,-0.984436,0,-18.39544,6.777087,0,0.004,895,0,0,0,3.920156,4.030634,4.073339,5.019312,5.07341,5.350494,1.586599,9.013298,10.32117,4.353333,"NAN","NAN",6.086487,-2.114389,-1.208182,-1.212346,-1.150155,0.3415591,37.79433,37.7672,37.78754,38.85227,38.43859,38.07011,37.62704,38.79123,35.24441,0.6954835,0.6942254,0.6951675,0.7455807,0.7258043,0.7083919,0.6877058,0.7426471,0.5811783,1.000089,6.766232,13.09877,337.9,338.4,329.8,-8.8,4.79
"2022-01-15 00:20:00",435306,-4.924572,-4.750945,-16.13246,8.056888,-16.25154,8.093074,-0.984436,0,-18.08363,6.715022,0,0.004,936,0,0,0,3.92026,4.027451,4.063448,5.019312,5.080093,5.334051,1.596456,9.016583,10.31789,4.346677,"NAN","NAN",6.086487,-2.120505,-1.208178,-1.213161,-1.15271,0.341717,37.79206,37.77172,37.78528,38.84775,38.43859,38.08142,37.62479,38.78671,35.24215,0.6953781,0.6944386,0.6950621,0.7453631,0.7258043,0.7089231,0.6876009,0.74243,0.581081,1.000115,6.747406,13.10246,338.5,338.5,329.8,-8.91,4.815
"2022-01-15 00:21:00",435307,-5.032095,-4.761573,-15.84642,7.928955,-15.57906,7.971901,-1.108897,0,-17.81638,6.639572,0,0.004,1205,0,0,0,3.910337,4.027407,4.060168,5.022649,5.080093,5.353902,1.589905,9.010017,10.32787,4.356608,"NAN","NAN",6.089765,-2.128378,-1.209885,-1.213161,-1.154417,0.3415619,37.78754,37.8418,37.78754,38.83644,38.43859,38.07463,37.62704,38.79575,35.24441,0.6951674,0.6976978,0.6951675,0.7448191,0.7258043,0.7086043,0.6877058,0.7428647,0.5811783,1.000128,6.743641,13.09601,338.1,338.6,329.7,-9.17,4.828
"2022-01-15 00:22:00",435308,-5.042879,-4.772232,-16.70458,7.883041,-16.25158,7.909475,-0.8599752,0,-17.63826,6.573802,0,0.004,1218,0,0,0,3.913709,4.034012,4.066826,5.019312,5.076752,5.353902,1.586614,9.010017,10.32471,4.336906,"NAN","NAN",6.089841,-2.132769,-1.209894,-1.216447,-1.156986,0.3417144,37.79432,37.77172,37.78302,38.83644,38.43633,38.07689,37.62931,38.79349,35.23763,0.6954835,0.694437,0.6949568,0.7448191,0.7256969,0.7087105,0.6878107,0.7427558,0.5808865,1.000089,6.743641,13.10246,337,337.6,329.5,-8.34,4.625
"2022-01-15 00:23:00",435309,-5.042895,-4.719104,-16.70458,7.850428,-15.85931,7.899734,-1.17113,-0.09634941,-17.72735,6.580622,0,0.004,1058,0,0,0,3.907061,4.007782,4.056999,5.022649,5.086777,5.353968,1.589905,9.006734,10.32774,4.340238,"NAN","NAN",6.086487,-2.140646,-1.211602,-1.216449,-1.156134,0.3417907,37.78981,37.83501,37.78302,38.84097,38.44537,38.07915,37.63609,38.7935,35.23763,0.6952727,0.6973815,0.6949568,0.7450364,0.7261265,0.7088168,0.6881252,0.7427561,0.5808865,1.000141,6.728575,13.1043,336.8,337.9,329.5,-8.79,4.696
"2022-01-15 00:24:00",435310,-5.053654,-4.71911,-17.39109,7.883131,-16.64388,7.896446,-0.8599752,0,-17.46012,6.58045,0,0.004,934,0,0,0,3.910434,4.007782,4.043839,5.022649,5.080093,5.357244,1.609558,9.013301,10.3213,4.343618,"NAN","NAN",6.086487,-2.1459,-1.214165,-1.218091,-1.15699,0.3417126,37.79433,37.80789,37.78528,38.83871,38.43406,38.07463,37.62704,38.78671,35.24667,0.6954835,0.6961212,0.6950621,0.7449277,0.7255895,0.7086043,0.6877058,0.74243,0.5812756,1.000102,6.721043,13.09877,336.3,337.1,329.7,-7.73,4.531
"2022-01-15 00:25:00",435311,-5.032182,-4.71914,-17.67715,7.928955,-17.09223,7.935511,-0.9222056,0,-17.1929,6.590205,0,0.004,990,0,0,0,3.917081,3.997955,4.033905,5.019312,5.080093,5.350561,1.589905,9.006734,10.32497,4.343567,"NAN","NAN",6.086487,-2.153785,-1.215025,-1.218916,-1.156996,0.3417873,37.79433,37.81015,37.78528,38.83192,38.44085,38.06333,37.62704,38.78671,35.23989,0.6954835,0.6962254,0.6950621,0.7446017,0.7259117,0.7080731,0.6877058,0.74243,0.5809838,1.000102,6.721043,13.10891,336.3,336.9,330,-7.142,4.479
"2022-01-15 00:26:00",435312,-4.924656,-4.71914,-17.84878,8.004498,-17.48451,8.020897,-0.9222056,0,-17.46015,6.629649,0,0.004,938,0,0,0,3.913757,3.997955,4.03068,5.025986,5.080093,5.353836,1.599731,9.003451,10.32484,4.343623,"NAN","NAN",6.086487,-2.160783,-1.215878,-1.218916,-1.156996,0.3417873,37.79659,37.80789,37.78754,38.83192,38.43859,38.07689,37.62931,38.78445,35.23537,0.6955889,0.6961198,0.6951675,0.7446017,0.7258043,0.7087105,0.6878107,0.7423217,0.5807892,1.000102,6.721043,13.10799,336.5,336.9,330,-7.144,4.487
"2022-01-15 00:27:00",435313,-4.817101,-4.72974,-17.96329,8.07031,-17.59668,8.086617,-1.108897,0,-17.72749,6.649251,0,0.004,874,0,0,0,3.917135,3.997955,4.057106,5.022649,5.086777,5.360519,1.59318,9.006734,10.33495,4.35006,"NAN","NAN",6.093195,-2.16514,-1.217575,-1.219726,-1.159547,0.3417821,37.79659,37.84632,37.78754,38.83192,38.44085,38.07238,37.62931,38.79575,35.24441,0.6955889,0.6979089,0.6951674,0.7446017,0.7259117,0.708498,0.6878107,0.7428645,0.5811783,1.000089,6.717654,13.09325,336.7,337.1,329.8,-7.415,4.532
"2022-01-15 00:28:00",435314,-4.774077,-4.793497,-18.82142,8.15551,-18.38126,8.185143,-1.108897,0,-18.08384,6.715024,0,0.004,947,0,0,0,3.907109,3.997955,4.037338,5.019312,5.083435,5.347417,1.599731,9.013301,10.3251,4.360105,"NAN","NAN",6.089765,-2.173885,-1.218426,-1.222182,-1.162105,0.3417795,37.79659,37.76494,37.78528,38.84323,38.44085,38.07238,37.62479,38.79575,35.23537,0.6955889,0.6941206,0.6950621,0.7451451,0.7259117,0.7084982,0.6876009,0.7428645,0.5807892,1.000102,6.704099,13.09325,336.3,336.8,329.8,-7.05,4.473
"2022-01-15 00:29:00",435315,-4.784836,-4.836018,-17.79169,8.227791,-17.5967,8.237842,-0.8599752,-0.04817512,-18.26201,6.744547,0,0.004,993,0,0,0,3.913757,4.001231,4.037336,5.025986,5.086777,5.353968,1.606283,9.003451,10.33522,4.363429,"NAN","NAN",6.089841,-2.180015,-1.21843,-1.222185,-1.165522,0.3417791,37.79885,37.83276,37.78528,38.83192,38.44311,38.07011,37.62479,38.79802,35.23763,0.6956942,0.6972758,0.6950621,0.7446017,0.7260191,0.7083918,0.6876009,0.7429729,0.5808865,1.000077,6.70071,13.10062,337.7,337.9,329.7,-8.1,4.689
"2022-01-15 00:30:00",435316,-4.924654,-4.867939,-18.19216,8.227994,-17.87692,8.251071,-1.108897,0,-17.81661,6.767502,0,0.004,1109,0,0,0,3.907109,4.001231,4.05039,5.022649,5.086777,5.353968,1.59318,9.006734,10.33496,4.353442,"NAN","NAN",6.089841,-2.187026,-1.218437,-1.22383,-1.166381,0.3417776,37.79433,37.80563,37.78302,38.84097,38.43633,38.07011,37.63609,38.77993,35.24215,0.6954835,0.6960143,0.6949568,0.7450365,0.7256969,0.7083918,0.6881252,0.7421047,0.581081,1.000115,6.70071,13.09325,337.3,337.7,330.3,-7.436,4.645
"2022-01-15 00:31:00",435317,-5.042931,-4.952969,-18.53541,8.263985,-17.989,8.293729,-1.171127,0,-18.26203,6.800484,0,0.004,1079,0,0,0,3.910434,4.011063,4.060221,5.029322,5.080093,5.353968,1.589905,9.006734,10.3452,4.346899,"NAN","NAN",6.093195,-2.194025,-1.21929,-1.225469,-1.166381,0.3417776,37.79659,37.80337,37.78302,38.84097,38.43633,38.07011,37.63157,38.78445,35.24215,0.6955889,0.6959088,0.6949568,0.7450364,0.725697,0.7083918,0.6879156,0.7423217,0.5810811,1.000102,6.69318,13.09693,337.1,337.8,330,-7.854,4.667
"2022-01-15 00:32:00",435318,-5.139675,-4.974198,-18.93584,8.287059,-18.32522,8.316686,-1.295591,0,-18.48471,6.833206,0,0.004,977,0,0,0,3.917081,4.004507,4.063604,5.019312,5.083435,5.357244,1.589905,9.000168,10.32851,4.3535,"NAN","NAN",6.089841,-2.202757,-1.218428,-1.227099,-1.167226,0.341779,37.79659,37.80111,37.78754,38.83644,38.43859,38.06333,37.63383,38.79349,35.23989,0.6955889,0.6958033,0.6951675,0.7448191,0.7258043,0.7080731,0.6880204,0.7427556,0.5809838,1.000102,6.67812,13.10706,336.8,337.6,330,-7.769,4.621
"2022-01-15 00:33:00",435319,-5.161166,-4.974184,-19.05025,8.336162,-18.21314,8.372455,-0.9222056,0,-18.75195,6.889066,0,0.004,1252,0,0,0,3.917081,4.011057,4.043892,5.035995,5.086777,5.347488,1.59318,9.003451,10.33495,4.350169,"NAN","NAN",6.079941,-2.209753,-1.22184,-1.225459,-1.167225,0.3417797,37.79659,37.7672,37.7785,38.85679,38.43633,38.06559,37.63609,38.78897,35.24441,0.6955889,0.694226,0.6947461,0.7457976,0.725697,0.7081794,0.6881253,0.7425389,0.5811783,1.000089,6.67812,13.09509,336.9,338,330,-8.17,4.702
"2022-01-15 00:34:00",435320,-5.161161,-4.97418,-18.93581,8.362511,-18.15708,8.385582,-1.046669,0,-19.28643,6.905477,0,0.004,1156,0,0,0,3.913757,3.988124,4.004555,5.025986,5.083435,5.357244,1.589905,9.006734,10.34205,4.363535,"NAN","NAN",6.089844,-2.214998,-1.223544,-1.228733,-1.168076,0.3417805,37.78981,37.77172,37.78528,38.82966,38.44085,38.07011,37.62478,38.78897,35.23989,0.6952727,0.6944352,0.6950621,0.7444932,0.7259117,0.7083919,0.6876009,0.7425385,0.5809838,1.000089,6.67812,13.11351,337.2,338.1,329.5,-8.75,4.728
"2022-01-15 00:35:00",435321,-5.279418,-5.027303,-18.93577,8.368648,-18.43723,8.388759,-1.046667,0,-18.79643,6.915146,0,0.004,1247,0,0,0,3.917081,3.984833,4.00769,5.025986,5.080093,5.357178,1.599716,9.003451,10.34218,4.36026,"NAN","NAN",6.089765,-2.222864,-1.225247,-1.229548,-1.167219,0.3417844,37.80337,37.80337,37.78981,38.83192,38.43859,38.07011,37.62479,38.80027,35.24215,0.695905,0.6959088,0.6952729,0.7446017,0.7258043,0.708392,0.6876009,0.7430817,0.581081,1.000089,6.67812,13.09969,337.2,337.8,330.1,-8.01,4.673
"2022-01-15 00:36:00",435322,-5.311675,-5.080446,-18.59252,8.37542,-18.10099,8.388652,-0.9222056,0,-18.61826,6.94147,0,0.004,1151,0,0,0,3.910538,3.994675,4.030884,5.025986,5.083435,5.357244,1.593201,9.000168,10.33534,4.360313,"NAN","NAN",6.089922,-2.228113,-1.226953,-1.230368,-1.174898,0.3417844,37.79433,37.83728,37.78981,38.83192,38.43859,38.06785,37.62704,38.78671,35.23989,0.6954835,0.6974868,0.6952727,0.7446017,0.7258043,0.7082856,0.6877058,0.74243,0.5809838,1.000115,6.67812,13.09232,337.6,338.2,330.4,-8.02,4.742
"2022-01-15 00:37:00",435323,-5.408579,-5.10183,-18.53528,8.372149,-17.98888,8.388652,-0.984436,0,-18.93002,6.957868,0,0.004,940,0,0,0,3.913757,3.997902,4.007787,5.022649,5.083435,5.353902,1.589905,9.000171,10.3456,4.363586,"NAN","NAN",6.083292,-2.236055,-1.228698,-1.232044,-1.177495,0.3417859,37.79433,37.80563,37.78754,38.83192,38.43859,38.07463,37.62704,38.79575,35.24441,0.6954835,0.6960143,0.6951674,0.7446017,0.7258043,0.7086043,0.6877058,0.7428644,0.5811784,1.000051,6.666824,13.09232,337.6,338.3,330.1,-8.43,4.765
"2022-01-15 00:38:00",435324,-5.397894,-5.101893,-17.9632,8.309906,-17.42848,8.329282,-1.046667,0,-18.84093,6.941561,0,0.004,940,0,0,0,3.913757,3.975006,4.001188,5.022649,5.086777,5.357244,1.609599,9.006851,10.35229,4.363586,"NAN","NAN",6.086487,-2.243068,-1.228706,-1.232052,-1.177502,0.3417867,37.79206,37.83049,37.78754,38.8387,38.43859,38.06559,37.62479,38.79349,35.23989,0.6953781,0.6971703,0.6951674,0.7449278,0.7258043,0.7081794,0.6876009,0.7427557,0.5809838,1.000038,6.655529,13.11536,337.9,338.5,330.1,-8.68,4.819
"2022-01-15 00:39:00",435325,-5.4194,-5.101893,-18.19203,8.27711,-17.65263,8.296783,-0.9222056,0,-18.70731,6.925158,0,0.004,996,0,0,0,3.913757,3.997955,4.020899,5.019312,5.080093,5.353836,1.60964,9.000168,10.3456,4.353767,"NAN","NAN",6.083214,-2.246567,-1.228706,-1.23369,-1.177502,0.3417869,37.79432,37.80111,37.78981,38.82966,38.43406,38.08142,37.62252,38.79123,35.23989,0.6954835,0.6958033,0.6952727,0.7444932,0.7255895,0.7089231,0.6874961,0.742647,0.5809838,1.000064,6.655529,13.0868,337.5,338.1,330.2,-8.26,4.739
"2022-01-15 00:40:00",435326,-5.419401,-5.101895,-18.36364,8.280498,-17.65262,8.296887,-1.046667,0,-18.97454,6.915232,0,0.004,961,0,0,0,3.913757,4.004507,4.040667,5.029322,5.086777,5.353902,1.599772,8.996887,10.33877,4.353712,"NAN","NAN",6.083374,-2.252692,-1.228706,-1.235329,-1.177502,0.3417877,37.79433,37.83049,37.78302,38.83644,38.43859,38.06559,37.62704,38.79575,35.23537,0.6954835,0.6971703,0.6949568,0.7448191,0.7258043,0.7081794,0.6877058,0.7428645,0.5807892,1.000141,6.655529,13.09417,337.3,338.1,329.9,-8.57,4.739
"2022-01-15 00:41:00",435327,-5.419401,-5.101895,-18.0204,8.234454,-17.4845,8.277104,-0.9222056,0,-18.97454,6.941559,0,0.004,966,0,0,0,3.917081,4.004507,4.043892,5.029322,5.083435,5.353968,1.596497,9.003451,10.3456,4.347166,"NAN","NAN",6.070119,-2.257066,-1.229559,-1.237786,-1.178356,0.3417877,37.79659,37.83502,37.78302,38.83419,38.44311,38.07011,37.63157,38.79349,35.24441,0.6955889,0.6973815,0.6949568,0.7447104,0.7260191,0.7083919,0.6879156,0.7427558,0.5811783,1.000102,6.65214,13.09693,337.5,338.2,330,-8.51,4.753
"2022-01-15 00:42:00",435328,-5.419403,-5.091266,-18.64967,8.254354,-18.04489,8.290441,-0.8599752,0,-18.70729,6.974365,0,0.004,900,0,0,0,3.917132,3.997955,4.027552,5.035995,5.086777,5.350693,1.60964,9.006851,10.3456,4.360313,"NAN","NAN",6.086726,-2.26319,-1.230413,-1.237787,-1.180062,0.3417883,37.79206,37.80337,37.78981,38.8274,38.43633,38.08142,37.62479,38.78671,35.24441,0.6953781,0.6959088,0.6952729,0.7443845,0.7256969,0.7089232,0.6876009,0.74243,0.5811783,1.000102,6.641974,13.10062,336.9,337.7,330.4,-7.598,4.652
"2022-01-15 00:43:00",435329,-5.419403,-5.101895,-18.30642,8.290332,-17.70865,8.31013,-1.108899,0,-18.57366,6.981018,0,0.004,878,0,0,0,3.92378,3.978287,4.014488,5.025986,5.086777,5.357244,1.593201,9.000168,10.34901,4.340515,"NAN","NAN",6.080101,-2.267564,-1.232119,-1.238606,-1.182622,0.3417886,37.79206,37.83953,37.78528,38.84097,38.43859,38.08142,37.63157,38.78219,35.23989,0.6953781,0.6975923,0.6950621,0.7450364,0.7258043,0.7089233,0.6879156,0.7422131,0.5809838,1.000102,6.635197,13.11167,337.5,338.2,330.6,-7.857,4.741
"2022-01-15 00:44:00",435330,-5.41938,-5.112503,-18.70686,8.290222,-18.04488,8.313408,-0.9222056,0,-18.48456,6.970998,0,0.004,834,0,0,0,3.920405,3.958633,3.988167,5.032659,5.086777,5.350693,1.596497,9.000168,10.34559,4.350385,"NAN","NAN",6.093432,-2.272794,-1.234669,-1.238595,-1.186878,0.3417892,37.79433,37.76946,37.78754,38.8274,38.43859,38.09046,37.62931,38.79349,35.23989,0.6954835,0.6943316,0.6951675,0.7443843,0.7258043,0.7093484,0.6878107,0.7427557,0.5809838,1.000102,6.635197,13.10338,337.1,337.8,330.7,-7.487,4.676
"2022-01-15 00:45:00",435331,-5.408513,-5.15491,-19.39331,8.339653,-18.66128,8.369182,-1.108899,0,-18.39545,6.977735,0,0.004,859,0,0,0,3.920405,3.958633,3.978371,5.032659,5.086777,5.357315,1.596456,9.006851,10.34218,4.35704,"NAN","NAN",6.090004,-2.274505,-1.235501,-1.240213,-1.186005,0.3417921,37.78981,37.83953,37.78981,38.83644,38.44311,38.05655,37.62252,38.78897,35.23989,0.6952727,0.6975923,0.6952727,0.7448191,0.7260191,0.7077546,0.6874961,0.7425386,0.5809838,1.000115,6.635197,13.09601,336.6,337.5,330.8,-6.977,4.607